Hourly Data Report for January 09, 2004

TORONTO CITY
ONTARIO

43°40'00.000" N
79°24'00.000" W
112.50 m
6158355
71508
XTO

Download Data

Hourly Data (January 2004)
Hourly Data Report for January 9, 2004
TIME
LST
Temp Definition
°C
Dew Point Definition
°C
Rel Hum Definition
%
Precip. Amount Definition
mm

Wind Dir Definition
10's deg

Wind Spd Definition
km/h
Visibility Definition
km
Stn Press Definition
kPa
Hmdx Definition


Wind Chill Definition


Weather Definition


00:00 -14.7 -19.6 66   LegendMM LegendMM LegendMM 101.52     LegendNANA
01:00 -16.0 -19.9 72   LegendMM LegendMM LegendMM 101.60     LegendNANA
02:00 -16.2 -20.1 72   LegendMM LegendMM LegendMM 101.63     LegendNANA
03:00 -16.8 -21.0 70   LegendMM LegendMM LegendMM 101.69     LegendNANA
04:00 -18.2 -22.6 68   LegendMM LegendMM LegendMM 101.73     LegendNANA
05:00 -19.5 -24.5 64   LegendMM LegendMM LegendMM 101.76     LegendNANA
06:00 -20.3 -25.2 65   LegendMM LegendMM LegendMM 101.82     LegendNANA
07:00 -21.0 -25.9 65   LegendMM LegendMM LegendMM 101.89     LegendNANA
08:00 -22.0 -27.7 60   LegendMM LegendMM LegendMM 102.00     LegendNANA
09:00 -21.6 -27.8 57   LegendMM LegendMM LegendMM 102.10     LegendNANA
10:00 -21.0 -28.7 50   LegendMM LegendMM LegendMM 102.15     LegendNANA
11:00 -19.7 -28.2 47   LegendMM LegendMM LegendMM 102.14     LegendNANA
12:00 -19.0 -27.8 46   LegendMM LegendMM LegendMM 102.09     LegendNANA
13:00 -17.9 -27.2 44   LegendMM LegendMM LegendMM 102.02     LegendNANA
14:00 -17.1 -27.4 40   LegendMM LegendMM LegendMM 101.96     LegendNANA
15:00 -17.1 -26.3 45   LegendMM LegendMM LegendMM 101.95     LegendNANA
16:00 -17.1 -25.8 47   LegendMM LegendMM LegendMM 101.97     LegendNANA
17:00 -17.5 -25.6 49   LegendMM LegendMM LegendMM 102.00     LegendNANA
18:00 -18.5 -25.5 54   LegendMM LegendMM LegendMM 102.02     LegendNANA
19:00 -18.9 -25.2 58   LegendMM LegendMM LegendMM 102.05     LegendNANA
20:00 -19.4 -25.3 59   LegendMM LegendMM LegendMM 102.06     LegendNANA
21:00 -19.2 -24.7 62   LegendMM LegendMM LegendMM 102.07     LegendNANA
22:00 -19.3 -25.1 60   LegendMM LegendMM LegendMM 102.09     LegendNANA
23:00 -19.3 -24.6 63   LegendMM LegendMM LegendMM 102.09     LegendNANA

Notes on Data Quality.

Legend

  • E = Estimated
  • M = Missing
  • NA = Not Available*
  • [empty] = Indicates an unobserved value
Date modified: